| time (UTC) | temp F | wind direction | speed knots | gust knots | rain 1hr in | rain 24hr in | rain mn in | humidity % | barometer mb |
| 20260503192517 | 58 | 338 | 3.5 | 9.6 | 0.00 | 0.00 | 0.00 | 34 | 1012.2 |
| 20260503192017 | 58 | 315 | 4.3 | 10.4 | 0.00 | 0.00 | 0.00 | 34 | 1012.6 |
| 20260503191517 | 57 | 338 | 2.6 | 7.8 | 0.00 | 0.00 | 0.00 | 37 | 1012.5 |
| 20260503191017 | 57 | 315 | 2.6 | 7.0 | 0.00 | 0.00 | 0.00 | 36 | 1012.5 |
| 20260503190517 | 58 | 338 | 3.5 | 7.8 | 0.00 | 0.00 | 0.00 | 35 | 1012.4 |
| 20260503190017 | 57 | 315 | 2.6 | 9.6 | 0.00 | 0.00 | 0.00 | 36 | 1012.6 |
| 20260503185517 | 57 | 315 | 1.7 | 5.2 | 0.00 | 0.00 | 0.00 | 38 | 1012.6 |
| 20260503185017 | 56 | 338 | 2.6 | 6.1 | 0.00 | 0.00 | 0.00 | 38 | 1012.6 |
| 20260503184517 | 57 | 338 | 4.3 | 10.4 | 0.00 | 0.00 | 0.00 | 36 | 1012.8 |
| 20260503184017 | 57 | 315 | 4.3 | 11.3 | 0.00 | 0.00 | 0.00 | 37 | 1012.9 |
| 20260503183517 | 57 | 315 | 2.6 | 5.2 | 0.00 | 0.00 | 0.00 | 37 | 1012.9 |
| 20260503183017 | 56 | 338 | 3.5 | 6.1 | 0.00 | 0.00 | 0.00 | 39 | 1013.0 |
| 20260503182517 | 55 | 338 | 1.7 | 7.8 | 0.00 | 0.00 | 0.00 | 39 | 1013.1 |
| 20260503182017 | 55 | 0 | 3.5 | 8.7 | 0.00 | 0.00 | 0.00 | 38 | 1013.1 |
| 20260503181517 | 55 | 315 | 4.3 | 9.6 | 0.00 | 0.00 | 0.00 | 39 | 1013.2 |
| 20260503181017 | 54 | 338 | 4.3 | 8.7 | 0.00 | 0.00 | 0.00 | 39 | 1012.9 |
| 20260503180517 | 55 | 315 | 3.5 | 9.6 | 0.00 | 0.00 | 0.00 | 39 | 1013.1 |
| 20260503180017 | 54 | 315 | 3.5 | 8.7 | 0.00 | 0.00 | 0.00 | 43 | 1013.0 |
| 20260503175517 | 54 | 315 | 4.3 | 8.7 | 0.00 | 0.00 | 0.00 | 41 | 1013.1 |
| 20260503175017 | 54 | 315 | 3.5 | 7.0 | 0.00 | 0.00 | 0.00 | 41 | 1013.3 |
| 20260503174517 | 53 | 315 | 2.6 | 7.0 | 0.00 | 0.00 | 0.00 | 45 | 1013.2 |
| 20260503174017 | 53 | 315 | 2.6 | 6.1 | 0.00 | 0.00 | 0.00 | 43 | 1013.2 |
| 20260503173517 | 53 | 315 | 3.5 | 8.7 | 0.00 | 0.00 | 0.00 | 43 | 1013.3 |
| 20260503173017 | 53 | 315 | 2.6 | 7.8 | 0.00 | 0.00 | 0.00 | 44 | 1013.1 |
| 20260503172517 | 53 | 315 | 3.5 | 11.3 | 0.00 | 0.00 | 0.00 | 43 | 1013.3 |
| 20260503172017 | 53 | 315 | 2.6 | 10.4 | 0.00 | 0.00 | 0.00 | 44 | 1013.4 |
| 20260503171747 | 52 | 315 | 1.7 | 7.0 | 0.00 | 0.00 | 0.00 | 45 | 1013.4 |
| 20260503171517 | 52 | 315 | 1.7 | 7.0 | 0.00 | 0.00 | 0.00 | 45 | 1013.4 |
| 20260503171017 | 52 | 338 | 2.6 | 6.1 | 0.00 | 0.00 | 0.00 | 44 | 1013.4 |
| 20260503170517 | 52 | 338 | 3.5 | 7.0 | 0.00 | 0.00 | 0.00 | 44 | 1013.4 |
| 20260503160149 | 51 | 338 | 1.7 | 5.2 | 0.00 | 0.00 | 0.00 | 46 | 1013.9 |
| 20260503150642 | 50 | 338 | 2.6 | 7.8 | 0.00 | 0.00 | 0.00 | 47 | 1014.1 |
| 20260503150517 | 50 | 338 | 2.6 | 7.8 | 0.00 | 0.00 | 0.00 | 47 | 1014.1 |
| 20260503131016 | 47 | 315 | 2.6 | 4.3 | 0.00 | 0.00 | 0.00 | 57 | 1013.9 |
| 20260503130517 | 47 | 338 | 2.6 | 5.2 | 0.00 | 0.00 | 0.00 | 57 | 1013.9 |
| 20260503110516 | 45 | 0 | 1.7 | 4.3 | 0.00 | 0.00 | 0.00 | 61 | 1013.1 |
| 20260503100149 | 45 | 0 | 0.9 | 5.2 | 0.00 | 0.00 | 0.00 | 58 | |
| 20260503090434 | 46 | 0.0 | 2.6 | 0.00 | 0.00 | 0.00 | 59 | 1011.8 | |
| 20260503081516 | 46 | 0.0 | 1.7 | 0.00 | 0.00 | 0.00 | 58 | 1011.6 | |
| 20260503081016 | 46 | 0.0 | 0.9 | 0.00 | 0.00 | 0.00 | 58 | 1011.5 | |
| 20260503080516 | 46 | 0.0 | 0.9 | 0.00 | 0.00 | 0.00 | 57 | 1011.5 | |
| 20260503072516 | 47 | 0.0 | 1.7 | 0.00 | 0.00 | 0.00 | 55 | 1011.5 | |
| 20260503072016 | 47 | 23 | 0.9 | 2.6 | 0.00 | 0.00 | 0.00 | 55 | 1011.5 |
| 20260503071919 | 47 | 0.0 | 2.6 | 0.00 | 0.00 | 0.00 | 56 | 1011.5 | |
| 20260503071516 | 47 | 0.0 | 2.6 | 0.00 | 0.00 | 0.00 | 56 | 1011.5 | |
| 20260503071016 | 47 | 0.0 | 0.9 | 0.00 | 0.00 | 0.00 | 56 | 1011.5 | |
| 20260503070854 | 47 | 0.0 | 0.9 | 0.00 | 0.00 | 0.00 | 55 | 1011.5 | |
| 20260503070516 | 47 | 0.0 | 0.9 | 0.00 | 0.00 | 0.00 | 55 | 1011.5 | |
| 20260503070340 | 48 | 0.0 | 0.9 | 0.00 | 0.00 | 0.00 | 55 | 1011.5 | |
| 20260503055016 | 49 | 0.0 | 0.9 | 0.00 | 0.00 | 0.00 | 53 | 1011.5 | |
| 20260503054516 | 49 | 0.0 | 0.9 | 0.00 | 0.00 | 0.00 | 53 | 1011.7 | |
| 20260503054016 | 49 | 0.0 | 0.9 | 0.00 | 0.00 | 0.00 | 53 | 1011.8 | |
| 20260503053516 | 49 | 0.0 | 0.9 | 0.00 | 0.00 | 0.00 | 53 | 1011.7 | |
| 20260503053016 | 49 | 0.0 | 0.9 | 0.00 | 0.00 | 0.00 | 53 | 1011.8 | |
| 20260503052516 | 49 | 0.0 | 0.9 | 0.00 | 0.00 | 0.00 | 53 | 1011.8 | |
| 20260503052016 | 49 | 0.0 | 0.9 | 0.00 | 0.00 | 0.00 | 53 | 1011.8 | |
| 20260503051516 | 49 | 0.0 | 0.9 | 0.00 | 0.00 | 0.00 | 53 | 1011.9 | |
| 20260503051016 | 49 | 0.0 | 1.7 | 0.00 | 0.00 | 0.00 | 53 | 1011.9 | |
| 20260503050516 | 49 | 0.0 | 0.9 | 0.00 | 0.00 | 0.00 | 54 | 1012.0 | |
| 20260503050016 | 49 | 0.0 | 0.9 | 0.00 | 0.00 | 0.00 | 53 | 1012.0 | |
| 20260503045516 | 49 | 0.0 | 0.9 | 0.00 | 0.00 | 0.00 | 53 | 1012.3 | |
| 20260503045016 | 49 | 0.0 | 1.7 | 0.00 | 0.00 | 0.00 | 52 | 1012.3 | |
| 20260503044516 | 49 | 0.0 | 1.7 | 0.00 | 0.00 | 0.00 | 52 | 1012.4 | |
| 20260503044016 | 50 | 0.0 | 0.9 | 0.00 | 0.00 | 0.00 | 52 | 1012.3 | |
| 20260503043516 | 50 | 0.0 | 0.9 | 0.00 | 0.00 | 0.00 | 52 | 1012.3 | |
| 20260503043016 | 50 | 0.0 | 0.9 | 0.00 | 0.00 | 0.00 | 51 | 1012.2 | |
| 20260503042516 | 50 | 0.0 | 1.7 | 0.00 | 0.00 | 0.00 | 51 | 1012.2 | |
| 20260503042300 | 50 | 0.0 | 0.9 | 0.00 | 0.00 | 0.00 | 51 | 1012.2 | |
| 20260503042016 | 50 | 0.0 | 0.9 | 0.00 | 0.00 | 0.00 | 51 | 1012.2 | |
| 20260503041516 | 50 | 0.0 | 2.6 | 0.00 | 0.00 | 0.00 | 51 | 1012.3 | |
| 20260503041016 | 50 | 338 | 0.9 | 1.7 | 0.00 | 0.00 | 0.00 | 51 | 1012.4 |
| 20260503040516 | 50 | 0.0 | 1.7 | 0.00 | 0.00 | 0.00 | 51 | 1012.3 | |
| 20260503040148 | 50 | 0.0 | 1.7 | 0.00 | 0.00 | 0.00 | 51 | 1012.4 | |
| 20260503040035 | 50 | 0.0 | 1.7 | 0.00 | 0.00 | 0.00 | 52 | 1012.3 | |
| 20260503035516 | 50 | 0.0 | 1.7 | 0.00 | 0.00 | 0.00 | 52 | 1012.3 | |
| 20260503035016 | 50 | 0.0 | 1.7 | 0.00 | 0.00 | 0.00 | 51 | 1012.4 | |
| 20260503034516 | 50 | 0.0 | 2.6 | 0.00 | 0.00 | 0.00 | 51 | 1012.4 | |
| 20260503034018 | 50 | 0.0 | 1.7 | 0.00 | 0.00 | 0.00 | 52 | 1012.2 | |
| 20260503033518 | 50 | 0.0 | 0.9 | 0.00 | 0.00 | 0.00 | 52 | 1012.3 | |
| 20260503033018 | 51 | 0.0 | 0.9 | 0.00 | 0.00 | 0.00 | 51 | 1012.3 | |
| 20260503032518 | 51 | 0.0 | 0.9 | 0.00 | 0.00 | 0.00 | 51 | 1012.3 | |
| 20260503032018 | 51 | 0.0 | 1.7 | 0.00 | 0.00 | 0.00 | 50 | 1012.2 | |
| 20260503031518 | 51 | 0.0 | 1.7 | 0.00 | 0.00 | 0.00 | 50 | 1012.2 | |
| 20260503031018 | 51 | 0.0 | 0.9 | 0.00 | 0.00 | 0.00 | 50 | 1012.3 | |
| 20260503030518 | 51 | 0.0 | 0.9 | 0.00 | 0.00 | 0.00 | 50 | 1012.3 | |
| 20260503030018 | 52 | 0.0 | 0.9 | 0.00 | 0.00 | 0.00 | 50 | 1012.3 | |
| 20260503025518 | 52 | 0.0 | 0.9 | 0.00 | 0.00 | 0.00 | 49 | 1012.3 | |
| 20260503025018 | 52 | 0.0 | 1.7 | 0.00 | 0.00 | 0.00 | 49 | 1012.3 | |
| 20260503024518 | 52 | 0.0 | 2.6 | 0.00 | 0.00 | 0.00 | 49 | 1012.3 | |
| 20260503024018 | 52 | 0.0 | 0.9 | 0.00 | 0.00 | 0.00 | 49 | 1012.3 | |
| 20260503023518 | 52 | 0.0 | 2.6 | 0.00 | 0.00 | 0.00 | 49 | 1012.4 | |
| 20260503023018 | 52 | 0.0 | 1.7 | 0.00 | 0.00 | 0.00 | 49 | 1012.3 | |
| 20260503022518 | 52 | 0.0 | 2.6 | 0.00 | 0.00 | 0.00 | 49 | 1012.3 | |
| 20260503022018 | 52 | 0.0 | 2.6 | 0.00 | 0.00 | 0.00 | 49 | 1012.4 | |
| 20260503021518 | 52 | 0.0 | 0.9 | 0.00 | 0.00 | 0.00 | 49 | 1012.3 | |
| 20260503021018 | 52 | 0.0 | 1.7 | 0.00 | 0.00 | 0.00 | 50 | 1012.3 | |
| 20260503020518 | 53 | 0.0 | 2.6 | 0.00 | 0.00 | 0.00 | 50 | 1012.2 | |
| 20260503020017 | 53 | 0.0 | 1.7 | 0.00 | 0.00 | 0.00 | 50 | 1012.1 | |
| 20260503015518 | 53 | 0.0 | 0.9 | 0.00 | 0.00 | 0.00 | 50 | 1012.1 | |
| 20260503015018 | 53 | 0.0 | 0.9 | 0.00 | 0.00 | 0.00 | 49 | 1012.2 | |
| 20260503014518 | 53 | 0.0 | 0.9 | 0.00 | 0.00 | 0.00 | 49 | 1012.2 | |
| 20260503014016 | 53 | 0.0 | 3.5 | 0.00 | 0.00 | 0.00 | 49 | 1012.2 | |
| 20260503013518 | 53 | 0.0 | 2.6 | 0.00 | 0.00 | 0.00 | 49 | 1012.1 | |
| 20260503013018 | 53 | 0.0 | 0.9 | 0.00 | 0.00 | 0.00 | 48 | 1012.3 | |
| 20260503012517 | 54 | 0.0 | 0.9 | 0.00 | 0.00 | 0.00 | 48 | 1012.3 | |
| 20260503012018 | 54 | 0.0 | 3.5 | 0.00 | 0.00 | 0.00 | 48 | 1012.3 | |
| 20260503011518 | 54 | 0.0 | 0.9 | 0.00 | 0.00 | 0.00 | 49 | 1012.2 | |
| 20260503011018 | 54 | 0.0 | 0.0 | 0.00 | 0.00 | 0.00 | 49 | 1012.2 | |
| 20260503010518 | 54 | 0.0 | 0.9 | 0.00 | 0.00 | 0.00 | 48 | 1012.1 | |
| 20260503010017 | 54 | 0.0 | 0.9 | 0.00 | 0.00 | 0.00 | 49 | 1012.1 | |
| 20260503005518 | 54 | 0.0 | 0.0 | 0.00 | 0.00 | 0.00 | 49 | 1012.0 | |
| 20260503005018 | 54 | 0.0 | 0.9 | 0.00 | 0.00 | 0.00 | 48 | 1012.0 | |
| 20260503004518 | 54 | 0.0 | 0.9 | 0.00 | 0.00 | 0.00 | 48 | 1011.8 | |
| 20260503004018 | 55 | 0.0 | 0.9 | 0.00 | 0.00 | 0.00 | 48 | 1011.8 | |
| 20260503003517 | 55 | 0.0 | 0.9 | 0.00 | 0.00 | 0.00 | 47 | 1011.8 | |
| 20260503003018 | 55 | 0.0 | 0.9 | 0.00 | 0.00 | 0.00 | 47 | 1011.8 | |
| 20260503002517 | 55 | 0.0 | 0.9 | 0.00 | 0.00 | 0.00 | 46 | 1011.6 | |
| 20260503002017 | 55 | 0.0 | 0.0 | 0.00 | 0.00 | 0.00 | 46 | 1011.7 | |
| 20260503001518 | 55 | 0.0 | 0.9 | 0.00 | 0.00 | 0.00 | 46 | 1011.5 | |
| 20260503001018 | 55 | 0.0 | 0.9 | 0.00 | 0.00 | 0.00 | 46 | 1011.6 | |
| 20260503000658 | 56 | 0.0 | 0.9 | 0.00 | 0.00 | 0.00 | 45 | 1011.6 | |
| 20260503000518 | 56 | 0.0 | 0.9 | 0.00 | 0.00 | 0.00 | 45 | 1011.6 | |
| 20260503000017 | 56 | 0.0 | 0.9 | 0.00 | 0.00 | 0.00 | 45 | 1011.5 | |
| 20260502235518 | 56 | 0.0 | 1.7 | 0.00 | 0.00 | 0.00 | 44 | 1011.5 | |
| 20260502235018 | 56 | 0.0 | 0.9 | 0.00 | 0.00 | 0.00 | 44 | 1011.6 | |
| 20260502234518 | 57 | 0.0 | 0.9 | 0.00 | 0.00 | 0.00 | 43 | 1011.5 | |
| 20260502234017 | 57 | 0.0 | 0.9 | 0.00 | 0.00 | 0.00 | 43 | 1011.5 | |
| 20260502233517 | 57 | 338 | 0.9 | 1.7 | 0.00 | 0.00 | 0.00 | 42 | 1011.3 |
| 20260502233018 | 57 | 0 | 0.9 | 2.6 | 0.00 | 0.00 | 0.00 | 42 | 1011.5 |
| 20260502232518 | 58 | 0 | 0.9 | 1.7 | 0.00 | 0.00 | 0.00 | 42 | 1011.5 |
| 20260502232017 | 58 | 338 | 0.9 | 3.5 | 0.00 | 0.00 | 0.00 | 41 | 1011.5 |
| 20260502231517 | 58 | 0 | 1.7 | 3.5 | 0.00 | 0.00 | 0.00 | 41 | 1011.5 |
| 20260502231018 | 58 | 338 | 1.7 | 5.2 | 0.00 | 0.00 | 0.00 | 39 | 1011.4 |
| 20260502230517 | 59 | 338 | 0.9 | 4.3 | 0.00 | 0.00 | 0.00 | 40 | 1011.3 |
| 20260502230018 | 59 | 315 | 0.9 | 1.7 | 0.00 | 0.00 | 0.00 | 39 | 1011.3 |
| 20260502225517 | 60 | 338 | 0.9 | 2.6 | 0.00 | 0.00 | 0.00 | 39 | 1011.3 |
| 20260502225017 | 60 | 0.0 | 0.9 | 0.00 | 0.00 | 0.00 | 38 | 1011.1 | |
| 20260502224517 | 60 | 0.0 | 3.5 | 0.00 | 0.00 | 0.00 | 37 | 1011.1 | |
| 20260502224017 | 60 | 0.0 | 1.7 | 0.00 | 0.00 | 0.00 | 38 | 1011.2 | |
| 20260502223518 | 59 | 0.0 | 3.5 | 0.00 | 0.00 | 0.00 | 40 | 1011.2 | |
| 20260502223017 | 59 | 0 | 0.9 | 3.5 | 0.00 | 0.00 | 0.00 | 39 | 1011.1 |
| 20260502222518 | 59 | 338 | 0.9 | 3.5 | 0.00 | 0.00 | 0.00 | 40 | 1011.1 |
| 20260502222239 | 60 | 338 | 1.7 | 5.2 | 0.00 | 0.00 | 0.00 | 39 | 1011.0 |
| 20260502222017 | 60 | 338 | 1.7 | 5.2 | 0.00 | 0.00 | 0.00 | 39 | 1011.0 |
| 20260502221517 | 60 | 0.0 | 1.7 | 0.00 | 0.00 | 0.00 | 39 | 1011.1 | |
| 20260502221017 | 60 | 315 | 0.9 | 2.6 | 0.00 | 0.00 | 0.00 | 38 | 1011.1 |
| 20260502220517 | 60 | 338 | 0.9 | 1.7 | 0.00 | 0.00 | 0.00 | 39 | 1011.1 |
| 20260502220152 | 60 | 315 | 1.7 | 3.5 | 0.00 | 0.00 | 0.00 | 39 | 1011.1 |
| 20260502220034 | 60 | 315 | 1.7 | 5.2 | 0.00 | 0.00 | 0.00 | 39 | 1011.1 |
| 20260502215517 | 60 | 315 | 1.7 | 5.2 | 0.00 | 0.00 | 0.00 | 39 | 1011.1 |
| 20260502215432 | 60 | 23 | 0.9 | 2.6 | 0.00 | 0.00 | 0.00 | 39 | 1011.1 |
| 20260502215017 | 60 | 23 | 0.9 | 2.6 | 0.00 | 0.00 | 0.00 | 39 | 1011.1 |
| 20260502214517 | 60 | 338 | 0.9 | 3.5 | 0.00 | 0.00 | 0.00 | 40 | 1011.1 |
| 20260502214331 | 60 | 338 | 1.7 | 4.3 | 0.00 | 0.00 | 0.00 | 39 | 1011.0 |
| 20260502214017 | 60 | 338 | 1.7 | 4.3 | 0.00 | 0.00 | 0.00 | 39 | 1011.0 |
| 20260502213921 | 60 | 338 | 1.7 | 4.3 | 0.00 | 0.00 | 0.00 | 39 | 1010.9 |
| 20260502213517 | 60 | 338 | 1.7 | 4.3 | 0.00 | 0.00 | 0.00 | 39 | 1010.9 |
| 20260502213413 | 60 | 0.0 | 2.6 | 0.00 | 0.00 | 0.00 | 40 | 1010.9 | |
| 20260502213017 | 60 | 0.0 | 2.6 | 0.00 | 0.00 | 0.00 | 40 | 1010.9 | |
| 20260502212937 | 60 | 0.0 | 0.9 | 0.00 | 0.00 | 0.00 | 41 | 1010.9 | |
| 20260502212518 | 60 | 0.0 | 0.9 | 0.00 | 0.00 | 0.00 | 41 | 1010.9 | |
| 20260502212443 | 60 | 315 | 0.9 | 3.5 | 0.00 | 0.00 | 0.00 | 40 | 1010.7 |
| 20260502212017 | 60 | 315 | 0.9 | 3.5 | 0.00 | 0.00 | 0.00 | 40 | 1010.7 |
| 20260502211904 | 60 | 0.0 | 1.7 | 0.00 | 0.00 | 0.00 | 39 | 1010.7 | |
| 20260502211622 | 60 | 248 | 0.9 | 2.6 | 0.00 | 0.00 | 0.00 | 41 | 1010.6 |
| 20260502211517 | 60 | 0.0 | 1.7 | 0.00 | 0.00 | 0.00 | 39 | 1010.7 | |
| 20260502211017 | 60 | 248 | 0.9 | 2.6 | 0.00 | 0.00 | 0.00 | 41 | 1010.6 |
| 20260502210517 | 60 | 315 | 0.9 | 3.5 | 0.00 | 0.00 | 0.00 | 41 | 1010.6 |
| 20260502210017 | 60 | 315 | 0.9 | 2.6 | 0.00 | 0.00 | 0.00 | 41 | 1010.7 |
| 20260502205517 | 60 | 338 | 0.9 | 4.3 | 0.00 | 0.00 | 0.00 | 41 | 1010.7 |
| 20260502205017 | 60 | 338 | 0.9 | 3.5 | 0.00 | 0.00 | 0.00 | 40 | 1010.7 |
| 20260502204517 | 59 | 338 | 0.9 | 2.6 | 0.00 | 0.00 | 0.00 | 41 | 1010.8 |
| 20260502204017 | 59 | 315 | 1.7 | 6.1 | 0.00 | 0.00 | 0.00 | 42 | 1011.0 |
| 20260502203517 | 60 | 338 | 0.9 | 3.5 | 0.00 | 0.00 | 0.00 | 41 | 1011.0 |
| 20260502203017 | 60 | 23 | 0.9 | 5.2 | 0.00 | 0.00 | 0.00 | 42 | 1011.0 |
| 20260502202840 | 59 | 0 | 0.9 | 2.6 | 0.00 | 0.00 | 0.00 | 43 | 1011.1 |
| 20260502202517 | 59 | 0 | 0.9 | 2.6 | 0.00 | 0.00 | 0.00 | 43 | 1011.1 |
| 20260502202017 | 59 | 0 | 0.9 | 2.6 | 0.00 | 0.00 | 0.00 | 42 | 1011.1 |
| 20260502201517 | 60 | 338 | 1.7 | 2.6 | 0.00 | 0.00 | 0.00 | 41 | 1011.2 |
| 20260502201017 | 60 | 338 | 0.9 | 3.5 | 0.00 | 0.00 | 0.00 | 42 | 1011.1 |
| 20260502200517 | 60 | 0 | 1.7 | 5.2 | 0.00 | 0.00 | 0.00 | 42 | 1011.1 |
| 20260502200018 | 61 | 338 | 1.7 | 5.2 | 0.00 | 0.00 | 0.00 | 40 | 1011.2 |
| 20260502195517 | 61 | 45 | 0.9 | 2.6 | 0.00 | 0.00 | 0.00 | 39 | 1011.2 |
| 20260502195017 | 61 | 338 | 1.7 | 5.2 | 0.00 | 0.00 | 0.00 | 41 | 1011.3 |
| 20260502194517 | 61 | 23 | 0.9 | 3.5 | 0.00 | 0.00 | 0.00 | 42 | 1011.4 |
| 20260502194017 | 61 | 338 | 0.9 | 4.3 | 0.00 | 0.00 | 0.00 | 41 | 1011.5 |
| 20260502193517 | 61 | 23 | 0.9 | 2.6 | 0.00 | 0.00 | 0.00 | 41 | 1011.5 |
| 20260502193017 | 60 | 68 | 0.9 | 2.6 | 0.00 | 0.00 | 0.00 | 43 | 1011.6 |
| 20260502192834 | 60 | 0 | 1.7 | 5.2 | 0.00 | 0.00 | 0.00 | 42 | 1011.8 |